GW1438 Weather Reports


time (UTC)temp
C
wind
direction
speed
KPH
gust
KPH
rain 1hr
cm
rain 24hr
cm
rain mn
cm
humidity
%
barometer
mb
20260510071412 10 215 0.0 0.0 0.00 0.00 0.00 98 1012.2
20260510070910 10 215 0.0 0.0 0.00 0.00 0.00 98 1012.2
20260510070407 10 215 0.0 0.0 0.00 0.00 0.00 98 1012.2
20260510065902 11 215 0.0 0.0 0.00 0.00 0.00 98 1012.2
20260510065359 11 215 0.0 0.0 0.00 0.00 0.00 98 1012.2
20260510064855 11 215 0.0 0.0 0.00 0.00 0.00 97 1012.1
20260510064354 11 216 0.0 0.0 0.00 0.00 0.00 97 1012.3
20260510063849 11 216 0.0 0.0 0.00 0.00 0.00 97 1012.0
20260510063346 11 215 0.0 0.0 0.00 0.00 0.00 97 1012.0
20260510062843 11 215 0.0 0.0 0.00 0.00 0.00 97 1011.8
20260510062338 11 215 0.0 0.0 0.00 0.00 0.00 96 1011.9
20260510061834 11 215 0.0 0.0 0.00 0.00 0.00 96 1012.1
20260510061331 11 215 0.0 0.0 0.00 0.00 0.00 96 1011.9
20260510060827 11 215 0.0 0.0 0.00 0.00 0.00 96 1012.0
20260510060324 11 215 0.0 0.0 0.00 0.00 0.00 96 1011.9
20260510055821 11 215 0.0 0.0 0.00 0.00 0.00 96 1011.9
20260510055320 11 215 0.0 0.0 0.00 0.00 0.00 96 1012.0
20260510054819 11 215 0.0 0.0 0.00 0.00 0.00 96 1012.2
20260510054315 11 215 0.0 0.0 0.00 0.00 0.00 96 1012.0
20260510053810 11 215 0.0 0.0 0.00 0.00 0.00 96 1012.0
20260510053306 12 215 0.0 0.0 0.00 0.00 0.00 96 1012.2
20260510052802 12 215 0.0 0.0 0.00 0.00 0.00 95 1012.1
20260510052258 12 215 0.0 0.0 0.00 0.00 0.00 95 1012.4
20260510051754 12 215 0.0 0.0 0.00 0.00 0.00 95 1012.3
20260510051251 12 217 0.0 0.0 0.00 0.00 0.00 95 1012.5
20260510050748 12 217 0.0 0.0 0.00 0.00 0.00 95 1012.2
20260510050245 12 217 0.0 0.0 0.00 0.00 0.00 95 1012.2
20260510045742 12 217 0.0 0.0 0.00 0.00 0.00 95 1012.1
20260510045238 12 215 0.0 0.0 0.00 0.00 0.00 94 1012.4
20260510044735 12 215 0.0 0.0 0.00 0.00 0.00 94 1012.2
20260510044233 12 215 0.0 0.0 0.00 0.00 0.00 93 1012.2
20260510043728 12 215 0.0 0.0 0.00 0.00 0.00 93 1012.5
20260510043225 12 215 0.0 0.0 0.00 0.00 0.00 93 1012.4
20260510042722 12 215 0.0 0.0 0.00 0.00 0.00 93 1012.3
20260510042218 13 215 0.0 0.0 0.00 0.00 0.00 93 1012.2
20260510041715 13 215 0.0 0.0 0.00 0.00 0.00 92 1012.3
20260510041212 13 216 0.0 0.0 0.00 0.00 0.00 92 1012.3
20260510040709 13 216 0.0 0.0 0.00 0.00 0.00 92 1012.2
20260510040206 13 215 0.0 0.0 0.00 0.00 0.00 91 1012.3
20260510035701 13 215 0.0 0.0 0.00 0.00 0.00 92 1012.3
20260510035157 13 218 0.0 0.0 0.00 0.00 0.00 91 1012.0
20260510034653 13 218 0.0 0.0 0.00 0.00 0.00 91 1012.0
20260510034151 13 218 0.0 0.0 0.00 0.00 0.00 90 1012.0
20260510033647 13 218 0.0 0.0 0.00 0.00 0.00 90 1011.9
20260510033145 13 218 0.0 0.0 0.00 0.00 0.00 90 1011.9
20260510032641 13 218 0.0 0.0 0.00 0.00 0.00 89 1012.1
20260510032136 13 218 0.0 0.0 0.00 0.00 0.00 89 1012.2
20260510031631 14 218 0.0 0.0 0.00 0.00 0.00 89 1012.1
20260510031129 14 218 0.0 0.0 0.00 0.00 0.00 89 1012.1
20260510030623 14 218 0.0 0.0 0.00 0.00 0.00 89 1012.0
20260510030121 14 218 0.0 0.0 0.00 0.00 0.00 89 1012.2
20260510025618 14 217 0.0 0.0 0.00 0.00 0.00 89 1012.0
20260510025115 14 220 0.0 0.0 0.00 0.00 0.00 88 1012.1
20260510024612 14 218 0.0 0.0 0.00 0.00 0.00 88 1012.0
20260510024108 14 218 0.0 0.0 0.00 0.00 0.00 87 1012.0
20260510023604 14 221 0.0 0.0 0.00 0.00 0.00 87 1011.9
20260510023102 14 221 0.0 0.0 0.00 0.00 0.00 87 1011.7
20260510022601 14 215 0.0 0.0 0.00 0.00 0.00 87 1011.9
20260510022056 14 212 0.0 0.0 0.00 0.00 0.00 87 1011.6
20260510021552 14 217 0.0 0.0 0.00 0.00 0.00 87 1011.9
20260510021050 14 222 0.0 0.0 0.00 0.00 0.00 87 1011.7
20260510020544 15 217 0.0 0.0 0.00 0.00 0.00 86 1011.7
20260510020040 15 217 0.0 0.0 0.00 0.00 0.00 86 1011.6
20260510015536 15 217 0.0 0.0 0.00 0.00 0.00 85 1011.6
20260510015032 15 217 0.0 0.0 0.00 0.00 0.00 85 1011.6
20260510014529 15 218 0.0 0.0 0.00 0.00 0.00 85 1011.7
20260510014026 15 217 0.0 0.0 0.00 0.00 0.00 85 1011.7
20260510013520 15 221 0.0 0.0 0.00 0.00 0.00 84 1011.5
20260510013016 15 221 0.0 0.0 0.00 0.00 0.00 84 1011.3
20260510012511 15 222 0.0 0.0 0.00 0.00 0.00 84 1011.4
20260510012007 15 222 0.0 0.0 0.00 0.00 0.00 84 1011.2
20260510011501 15 222 0.0 0.0 0.00 0.00 0.00 84 1011.2
20260510010957 15 213 0.0 0.0 0.00 0.00 0.00 83 1010.9
20260510010455 16 221 0.0 0.0 0.00 0.00 0.00 82 1011.0
20260510005951 16 221 0.0 0.0 0.00 0.00 0.00 82 1011.0
20260510005447 16 221 0.0 0.0 0.00 0.00 0.00 81 1010.9
20260510004945 16 218 0.0 0.0 0.00 0.00 0.00 80 1010.9
20260510004442 16 218 0.0 0.0 0.00 0.00 0.00 80 1010.8
20260510003940 17 217 0.0 0.0 0.00 0.00 0.00 79 1010.9
20260510003437 17 221 0.0 0.0 0.00 0.00 0.00 78 1010.9
20260510002937 17 221 0.0 0.0 0.00 0.00 0.00 77 1011.0
20260510002433 17 221 0.0 0.0 0.00 0.00 0.00 76 1011.0
20260510001929 17 217 0.0 0.0 0.00 0.00 0.00 75 1010.7
20260510001427 18 219 0.0 0.0 0.00 0.00 0.00 75 1010.5
20260510000924 18 212 0.0 0.0 0.00 0.00 0.00 74 1010.5
20260510000421 18 215 0.0 0.0 0.00 0.00 0.00 74 1010.6
20260509235917 18 215 0.0 0.0 0.00 0.00 0.00 73 1010.6
20260509235409 19 215 0.0 0.0 0.00 0.00 0.00 71 1010.5
20260509234904 19 216 0.0 0.0 0.00 0.00 0.00 69 1010.6
20260509234402 19 216 0.0 0.0 0.00 0.00 0.00 68 1010.4
20260509233900 19 214 0.0 0.0 0.00 0.00 0.00 67 1010.5
20260509233357 20 217 0.0 0.0 0.00 0.00 0.00 65 1010.4
20260509232852 20 221 0.0 0.0 0.00 0.00 0.00 62 1010.3
20260509232351 20 221 0.0 0.0 0.00 0.00 0.00 60 1010.4
20260509231846 20 221 0.0 0.0 0.00 0.00 0.00 59 1010.4
20260509231343 20 221 0.0 0.0 0.00 0.00 0.00 61 1010.4
20260509230841 21 221 0.0 0.0 0.00 0.00 0.00 60 1010.2
20260509230338 21 222 0.0 0.0 0.00 0.00 0.00 62 1010.3
20260509225832 21 212 0.0 0.0 0.00 0.00 0.00 55 1010.4
20260509225330 21 215 0.0 0.0 0.00 0.00 0.00 57 1010.2
20260509224821 21 204 1.6 1.6 0.00 0.00 0.00 55 1010.4
20260509224317 21 227 0.0 0.0 0.00 0.00 0.00 57 1010.1
20260509223814 22 228 0.0 1.6 0.00 0.00 0.00 53 1010.2
20260509223310 22 221 0.0 0.0 0.00 0.00 0.00 53 1010.4
20260509222807 22 234 1.6 1.6 0.00 0.00 0.00 50 1010.3
20260509222306 23 237 1.6 1.6 0.00 0.00 0.00 49 1010.2
20260509221758 23 252 1.6 1.6 0.00 0.00 0.00 47 1010.3
20260509221256 23 227 0.0 0.0 0.00 0.00 0.00 48 1010.1
20260509220751 22 232 0.0 0.0 0.00 0.00 0.00 48 1010.3
20260509220248 21 232 0.0 0.0 0.00 0.00 0.00 52 1010.2
20260509215743 21 217 0.0 0.0 0.00 0.00 0.00 54 1010.3
20260509215240 21 219 0.0 0.0 0.00 0.00 0.00 55 1010.3
20260509214737 21 210 1.6 1.6 0.00 0.00 0.00 52 1010.2
20260509214234 21 226 0.0 0.0 0.00 0.00 0.00 54 1010.2
20260509213731 22 346 1.6 1.6 0.00 0.00 0.00 50 1010.3
20260509213226 22 237 0.0 0.0 0.00 0.00 0.00 49 1010.5
20260509212724 22 230 0.0 0.0 0.00 0.00 0.00 49 1010.3
20260509212221 22 253 3.2 3.2 0.00 0.00 0.00 49 1010.3
20260509211717 23 19 3.2 3.2 0.00 0.00 0.00 48 1010.3
20260509211214 22 280 1.6 1.6 0.00 0.00 0.00 52 1010.1
20260509210710 21 232 0.0 1.6 0.00 0.00 0.00 55 1010.2
20260509210208 21 223 0.0 0.0 0.00 0.00 0.00 56 1010.1
20260509205707 21 232 1.6 1.6 0.00 0.00 0.00 55 1010.3
20260509205206 22 169 1.6 3.2 0.00 0.00 0.00 54 1010.1
20260509204703 23 350 3.2 3.2 0.00 0.00 0.00 55 1010.2
20260509204159 23 243 3.2 3.2 0.00 0.00 0.00 53 1010.1
20260509203655 23 201 1.6 1.6 0.00 0.00 0.00 55 1010.3
20260509203154 23 193 1.6 1.6 0.00 0.00 0.00 54 1010.0
20260509202649 22 215 0.0 0.0 0.00 0.00 0.00 56 1010.2
20260509202144 22 256 1.6 3.2 0.00 0.00 0.00 56 1010.2
20260509201639 21 215 0.0 1.6 0.00 0.00 0.00 58 1010.2
20260509201137 21 260 1.6 1.6 0.00 0.00 0.00 57 1010.4
20260509200633 21 188 1.6 1.6 0.00 0.00 0.00 57 1010.2
20260509200128 21 232 0.0 1.6 0.00 0.00 0.00 59 1010.3
20260509195624 21 239 1.6 1.6 0.00 0.00 0.00 61 1010.4
20260509195119 21 273 3.2 3.2 0.00 0.00 0.00 55 1010.4
20260509194619 22 170 1.6 1.6 0.00 0.00 0.00 55 1010.5
20260509194117 21 243 1.6 1.6 0.00 0.00 0.00 55 1010.7
20260509193612 21 201 0.0 1.6 0.00 0.00 0.00 55 1010.6
20260509193108 21 273 1.6 3.2 0.00 0.00 0.00 56 1010.8
20260509192605 21 197 1.6 1.6 0.00 0.00 0.00 57 1010.9
20260509192100 21 217 0.0 0.0 0.00 0.00 0.00 58 1011.0
20260509191555 21 214 0.0 0.0 0.00 0.00 0.00 56 1011.1
20260509191051 21 220 0.0 0.0 0.00 0.00 0.00 59 1011.3
20260509190548 21 232 1.6 1.6 0.00 0.00 0.00 58 1011.2
20260509190046 21 228 0.0 0.0 0.00 0.00 0.00 59 1011.0
20260509185543 21 220 0.0 0.0 0.00 0.00 0.00 57 1011.0
20260509185039 21 214 0.0 0.0 0.00 0.00 0.00 59 1011.1
20260509184538 20 234 0.0 1.6 0.00 0.00 0.00 57 1011.1
20260509184033 21 186 0.0 1.6 0.00 0.00 0.00 60 1011.5
20260509183529 20 228 0.0 0.0 0.00 0.00 0.00 56 1011.4
20260509183025 20 247 1.6 1.6 0.00 0.00 0.00 58 1011.4
20260509182521 20 217 0.0 0.0 0.00 0.00 0.00 61 1011.3
20260509182019 20 227 0.0 0.0 0.00 0.00 0.00 61 1011.5
20260509181517 20 238 1.6 1.6 0.00 0.00 0.00 58 1011.4
20260509181014 19 219 0.0 0.0 0.00 0.00 0.00 60 1012.0
20260509180509 19 229 0.0 0.0 0.00 0.00 0.00 62 1011.8
20260509180008 19 216 0.0 0.0 0.00 0.00 0.00 60 1012.1
20260509175502 19 230 0.0 0.0 0.00 0.00 0.00 61 1012.1
20260509174959 18 245 1.6 1.6 0.00 0.00 0.00 61 1012.1
20260509174456 19 243 1.6 1.6 0.00 0.00 0.00 59 1012.1
20260509173950 20 215 0.0 0.0 0.00 0.00 0.00 59 1012.3
20260509173445 20 159 1.6 1.6 0.00 0.00 0.00 62 1012.3
20260509172942 20 271 0.0 0.0 0.00 0.00 0.00 60 1012.1
20260509172439 20 260 3.2 3.2 0.00 0.00 0.00 57 1012.2
20260509171935 19 229 0.0 0.0 0.00 0.00 0.00 62 1012.5
20260509171431 18 221 0.0 0.0 0.00 0.00 0.00 62 1012.5
20260509170927 18 213 0.0 1.6 0.00 0.00 0.00 62 1012.4
20260509170423 18 227 0.0 0.0 0.00 0.00 0.00 61 1012.5
20260509165919 18 220 0.0 0.0 0.00 0.00 0.00 63 1012.5
20260509165413 18 231 0.0 0.0 0.00 0.00 0.00 60 1012.6
20260509164909 18 232 0.0 0.0 0.00 0.00 0.00 60 1012.6
20260509164405 18 230 0.0 0.0 0.00 0.00 0.00 60 1012.4
20260509163901 18 229 1.6 1.6 0.00 0.00 0.00 61 1012.4
20260509163358 18 219 0.0 0.0 0.00 0.00 0.00 60 1012.3
20260509162857 18 230 0.0 0.0 0.00 0.00 0.00 60 1012.7
20260509162356 18 279 1.6 1.6 0.00 0.00 0.00 60 1012.5
20260509161852 18 230 0.0 0.0 0.00 0.00 0.00 60 1012.6
20260509161348 18 217 0.0 0.0 0.00 0.00 0.00 63 1012.8
20260509160844 18 150 0.0 1.6 0.00 0.00 0.00 63 1012.6
20260509160340 17 204 1.6 1.6 0.00 0.00 0.00 63 1012.7
20260509155835 17 173 1.6 3.2 0.00 0.00 0.00 62 1012.5
20260509155332 17 229 0.0 0.0 0.00 0.00 0.00 70 1012.8
20260509154828 17 245 1.6 1.6 0.00 0.00 0.00 62 1012.8
20260509154325 18 221 0.0 0.0 0.00 0.00 0.00 64 1012.8
20260509153822 18 219 0.0 1.6 0.00 0.00 0.00 62 1012.7
20260509153319 18 214 0.0 0.0 0.00 0.00 0.00 62 1012.6
20260509152815 18 240 0.0 1.6 0.00 0.00 0.00 57 1012.8
20260509152311 20 215 0.0 1.6 0.00 0.00 0.00 56 1012.7
20260509151809 20 203 1.6 1.6 0.00 0.00 0.00 54 1012.8
20260509151305 18 222 0.0 0.0 0.00 0.00 0.00 63 1013.0
20260509150804 17 230 0.0 0.0 0.00 0.00 0.00 62 1013.0
20260509150301 17 205 0.0 1.6 0.00 0.00 0.00 61 1013.0
20260509145758 17 217 0.0 0.0 0.00 0.00 0.00 64 1013.1
20260509145258 17 217 0.0 1.6 0.00 0.00 0.00 63 1013.1
20260509144754 17 193 1.6 1.6 0.00 0.00 0.00 63 1013.3
20260509144252 17 180 0.0 1.6 0.00 0.00 0.00 63 1013.3
20260509143748 16 213 0.0 0.0 0.00 0.00 0.00 64 1013.4
20260509143246 16 216 0.0 0.0 0.00 0.00 0.00 65 1013.4
20260509142742 16 197 0.0 0.0 0.00 0.00 0.00 63 1013.6
20260509142238 16 259 0.0 1.6 0.00 0.00 0.00 64 1013.4
20260509141734 16 255 1.6 1.6 0.00 0.00 0.00 64 1013.5
20260509141231 16 217 0.0 0.0 0.00 0.00 0.00 63 1013.3
20260509140728 16 217 0.0 0.0 0.00 0.00 0.00 63 1013.1
20260509140225 15 222 0.0 0.0 0.00 0.00 0.00 66 1013.0
20260509135722 15 212 0.0 0.0 0.00 0.00 0.00 65 1013.3
20260509135220 15 222 0.0 0.0 0.00 0.00 0.00 65 1013.4
20260509134717 16 154 0.0 0.0 0.00 0.00 0.00 65 1013.4
20260509134214 16 230 0.0 1.6 0.00 0.00 0.00 63 1013.4
20260509133712 16 217 0.0 1.6 0.00 0.00 0.00 63 1013.1
20260509133208 16 223 0.0 0.0 0.00 0.00 0.00 64 1013.6
20260509132707 15 147 1.6 1.6 0.00 0.00 0.00 61 1013.1
20260509132205 15 221 0.0 0.0 0.00 0.00 0.00 62 1013.5
20260509131701 15 309 0.0 1.6 0.00 0.00 0.00 63 1013.4
20260509131158 15 245 1.6 1.6 0.00 0.00 0.00 62 1013.4
20260509130654 15 204 1.6 1.6 0.00 0.00 0.00 61 1013.3
20260509130150 15 144 1.6 1.6 0.00 0.00 0.00 61 1013.4
20260509125647 16 193 1.6 3.2 0.00 0.00 0.00 60 1013.4
20260509125143 16 192 1.6 1.6 0.00 0.00 0.00 61 1013.3
20260509124640 16 221 0.0 0.0 0.00 0.00 0.00 63 1013.1
20260509124137 15 209 0.0 0.0 0.00 0.00 0.00 61 1013.4
20260509123635 15 173 1.6 3.2 0.00 0.00 0.00 61 1013.4
20260509123132 15 235 0.0 1.6 0.00 0.00 0.00 61 1013.3
20260509122627 15 313 3.2 3.2 0.00 0.00 0.00 61 1013.4
20260509122124 15 213 1.6 1.6 0.00 0.00 0.00 61 1013.1
20260509121621 15 186 1.6 1.6 0.00 0.00 0.00 62 1013.4
20260509121119 15 282 1.6 1.6 0.00 0.00 0.00 61 1013.1
20260509120617 14 193 1.6 1.6 0.00 0.00 0.00 61 1013.1
20260509120115 14 176 1.6 1.6 0.00 0.00 0.00 61 1013.1
20260509115612 15 269 1.6 1.6 0.00 0.00 0.00 60 1013.3
20260509115109 14 231 0.0 0.0 0.00 0.00 0.00 60 1013.1
20260509114607 14 353 1.6 3.2 0.00 0.00 0.00 60 1012.8
20260509114106 14 95 3.2 3.2 0.00 0.00 0.00 60 1013.0
20260509113604 14 148 1.6 1.6 0.00 0.00 0.00 59 1012.8
20260509113101 14 224 0.0 1.6 0.00 0.00 0.00 61 1012.9
20260509112557 14 214 0.0 0.0 0.00 0.00 0.00 60 1012.8
20260509112054 14 211 0.0 0.0 0.00 0.00 0.00 61 1012.8
20260509111552 13 225 1.6 1.6 0.00 0.00 0.00 61 1012.7
20260509111048 13 224 0.0 1.6 0.00 0.00 0.00 60 1012.5
20260509110545 13 218 0.0 0.0 0.00 0.00 0.00 60 1012.8
20260509110043 13 221 0.0 0.0 0.00 0.00 0.00 62 1012.7
20260509105541 13 214 0.0 0.0 0.00 0.00 0.00 62 1012.9
20260509105038 13 219 0.0 0.0 0.00 0.00 0.00 58 1012.8
20260509104535 14 213 0.0 0.0 0.00 0.00 0.00 57 1012.4
20260509104032 13 235 0.0 0.0 0.00 0.00 0.00 57 1012.4
20260509103529 13 290 0.0 1.6 0.00 0.00 0.00 57 1012.5
20260509103028 13 178 3.2 3.2 0.00 0.00 0.00 57 1012.3
20260509102524 13 213 0.0 0.0 0.00 0.00 0.00 57 1012.6
20260509102021 13 202 1.6 1.6 0.00 0.00 0.00 56 1012.5
20260509101518 13 236 0.0 1.6 0.00 0.00 0.00 56 1012.5
20260509101015 14 269 0.0 1.6 0.00 0.00 0.00 56 1012.5
20260509100512 14 218 0.0 0.0 0.00 0.00 0.00 57 1012.3
20260509100009 14 284 1.6 1.6 0.00 0.00 0.00 56 1012.3
20260509095505 14 207 0.0 0.0 0.00 0.00 0.00 56 1012.4
20260509095003 14 289 0.0 1.6 0.00 0.00 0.00 56 1012.3
20260509094459 14 229 0.0 0.0 0.00 0.00 0.00 56 1012.6
20260509093956 14 205 0.0 1.6 0.00 0.00 0.00 56 1012.5
20260509093454 14 70 1.6 1.6 0.00 0.00 0.00 54 1012.6
20260509092952 14 198 1.6 3.2 0.00 0.00 0.00 55 1012.5
20260509092449 14 357 1.6 1.6 0.00 0.00 0.00 55 1012.6
20260509091948 14 201 0.0 0.0 0.00 0.00 0.00 55 1012.7
20260509091444 14 206 0.0 1.6 0.00 0.00 0.00 54 1012.6
20260509090941 14 226 0.0 0.0 0.00 0.00 0.00 55 1012.8
20260509090439 14 200 0.0 1.6 0.00 0.00 0.00 54 1012.6
20260509085936 14 265 0.0 1.6 0.00 0.00 0.00 55 1012.6
20260509085433 14 69 1.6 1.6 0.00 0.00 0.00 56 1012.6
20260509084929 14 213 0.0 1.6 0.00 0.00 0.00 56 1012.8
20260509084426 14 191 0.0 1.6 0.00 0.00 0.00 56 1012.9
20260509083924 14 109 1.6 1.6 0.00 0.00 0.00 56 1013.0
20260509083421 14 250 0.0 1.6 0.00 0.00 0.00 56 1012.9
20260509082917 14 297 1.6 3.2 0.00 0.00 0.00 56 1013.0
20260509082415 14 20 1.6 1.6 0.00 0.00 0.00 56 1013.3
20260509081911 14 153 0.0 1.6 0.00 0.00 0.00 55 1013.1
20260509081409 14 165 1.6 3.2 0.00 0.00 0.00 56 1013.4
20260509080906 14 211 0.0 1.6 0.00 0.00 0.00 57 1013.3
20260509080404 14 37 1.6 1.6 0.00 0.00 0.00 56 1013.4
20260509075902 14 217 0.0 0.0 0.00 0.00 0.00 57 1013.4
20260509075359 14 222 0.0 0.0 0.00 0.00 0.00 56 1013.4
20260509074856 14 284 1.6 1.6 0.00 0.00 0.00 56 1013.5
20260509074354 14 240 1.6 1.6 0.00 0.00 0.00 56 1013.4
20260509073850 14 229 0.0 0.0 0.00 0.00 0.00 56 1013.4
20260509073346 14 200 0.0 1.6 0.00 0.00 0.00 56 1013.4
20260509072843 14 192 0.0 0.0 0.00 0.00 0.00 56 1013.5
20260509072339 14 55 3.2 3.2 0.00 0.00 0.00 56 1013.4
20260509071836 14 185 1.6 1.6 0.00 0.00 0.00 56 1013.4